RADUGA-1 3 [-]

Last updated on Oct. 24, 2020, 5:55 a.m. UTC

1 22981U 94008A   20297.82304979 -.00000126  00000-0  00000-0 0  9995
2 22981  14.8916   4.5828 0002876  41.5127 359.7964  1.00214754 97804
UTC
Height (km)
Latitude
Longitude
Inclination
Orbital Period
UTC large
Height (km)
Speed (km/s)
/
Latitude / Longitude
Inclination (degrees)
Orbital Period (minutes)
Azimuth
Elevation
Range (km)
Doppler Factor
iOS Compass Heading
iOS Angle

Next 30 passes for location: Hong Kong

Rise time Rise Azimuth (degrees) Set time Set Azimuth (degrees) Duration Max altitude (degrees)

No matching passes for this satellites